Regional Weather Roundup
Issued by NWS Newport/Morehead, NC

Current Version | Previous Version | Graphics & Text | Print | Product List | Glossary Off
Versions: 1 2 3 4 5 6 7 8 9 10 11 12 13 14 15 16 17 18 19 20 21 22 23 24 25 26 27 28 29 30 31 32 33 34 35 36 37 38 39 40 41 42 43 44 45 46 47 48 49 50

213
ASUS42 KMHX 250825
RWRMHX
WEATHER ROUNDUP FOR EASTERN NORTH CAROLINA
NATIONAL WEATHER SERVICE NEWPORT/MOREHEAD CITY NC
400 AM EDT MON SEP 25 2017

NOTE: "FAIR" INDICATES FEW OR NO CLOUDS BELOW 12,000 FEET
WITH NO SIGNIFICANT WEATHER AND/OR OBSTRUCTIONS TO VISIBILITY

NCZ015>017-031-032-045>047-102-103-250900-
NORTH COAST

CITY           SKY/WX    TMP DP  RH WIND       PRES   REMARKS
EDENTON        PTCLDY    67  65  94 CALM      29.97F
ELIZABETH CITY MOCLDY    72  70  93 NE10      29.96F
KITTY HAWK     PTSUNNY   69  66  88 NE5G16    29.93F
MANTEO         CLOUDY    70  68  91 NE14G21   29.94F

$$

NCZ045>047-081-094-103-104-250900-
CENTRAL COAST

CITY           SKY/WX    TMP DP  RH WIND       PRES   REMARKS
FRISCO         PTCLDY    73  71  93 NE9G18    29.90F

$$

NCZ095-097-098-100-101-250900-
SOUTHERN COAST

CITY           SKY/WX    TMP DP  RH WIND       PRES   REMARKS
BEAUFORT       CLOUDY    73  71  93 NE13G21   29.89F
CEDAR ISLAND   NOT AVBL
JACKSONVILLE   MOCLDY    70  69  97 N10       29.90F
PINEY ISLAND     N/A    N/A N/A N/A NE14      29.90S
WILMINGTON     PTCLDY    69  67  93 N9        29.90F


$$

NCZ011>013-027>030-043-044-078>080-089-090>093-098-250900-
COASTAL PLAIN

CITY           SKY/WX    TMP DP  RH WIND       PRES   REMARKS
AHOSKIE        PTCLDY    60  60  99 CALM      29.99S
CLINTON        CLOUDY    67  63  85 N7        29.95F
ELIZABETHTOWN  NOT AVBL
GOLDSBORO      CLOUDY    67  67 100 NE6       29.95S
GREENVILLE     MOCLDY    63  63 100 N5        29.98F
HAVELOCK       CLOUDY    73  70  90 N15       29.91F
KENANSVILLE    CLOUDY    66  63  88 N7        29.94F
KINSTON        CLOUDY    66  64  91 N7        29.96S
NEW BERN       CLOUDY    72  69  90 NE9       29.93F
RICHLANDS      CLOUDY    68  66  94 N9        29.93F
ROCKY MOUNT    PTCLDY    61  61 100 NE5       29.98F
WASHINGTON     MOCLDY    67  65  96 N6        29.95F
WHITEVILLE     PTCLDY    69  63  83 NE5       29.91F

$$

AMZ130-135-150-152-154-156-158-170-250-252-270-ANZ085-086-088-633-658-670-250900-
MARINE OBSERVATIONS

STATION/POSITION TIME  TEMP    WIND        PRES    WAVE   SWELL
                       AIR SEA DIR/SP/G            HT/PER HT/PER
                 (UTC) (F)     (DEG/KT/KT) (MB)    (FT/S) (FT/S)
CHESAPEAKE LIGHT NOT AVBL
64 E VA BEACH    0750   71 70   40/ 14/ 16 1014.7   12/15  11/15
DUCK             0800   71 77   50/ 18/ 19 1014.0
2 E DUCK         0800      75                N/A     6/14   3/14
OREGON INLET     0800   72 76   40/ 14/ 20 1013.2
13E OREGON INLT  0748      75                N/A     8/13   8/13
HATTERAS CG      0800   73 78   50/ 14/ 22 1012.2
DIAMOND BUOY     0750   75 79   30/ 21/ 25 1011.1   11/14  10/14
CAPE LOOKOUT     0800   74      30/ 20/ 25 1011.5
BEAUFORT LAB     0800   74 76   20/  9/ 13 1011.5
30 SE NEW RVR IN 0708   76      40/ 21/ 27 1011.1
30 SE NEW RVR IN NOT AVBL
27 SE WRIGHTSVLE 0708   76 80   60/ 19/ 25 1011.1
5 SE WRIGHTSVLE  NOT AVBL
225 S CAPE HAT   0750   81 80   20/ 35/ 43  997.3   21/13  10/13
41 SE CHARLESTON 0810   78 81   30/ 17/ 21 1010.5

$$




USA.gov is the U.S. government's official web portal to all federal, state and local government web resources and services.